Погода в Усть-Кане

Россия / Республика Алтай     50°55′45″N   84°45′44″E
темп.,
°C
ветер,
м/с
пор.,
м/с
влажн.,
%
обл.,
%
осадки,
мм/ч
давл.,
гПа
погр.,
м
19 апреля, пн
пн1901:00+1ю467597 0.0 1014118
04:00+1ю357455 0.0 101285
07:00+3ю377140 0.0 1009211
10:00+4ююз498084 1.9 1008795
13:00−1ссв339498 3.7 1015282
16:00−3с449099 2.6 1018446
19:00−4ссв3491100 3.8 1019449
22:00−7ссв349298 1.0 1021336
20 апреля, вт
вт2001:00−8с2492100 1.4 1022268
04:00−9с2392100 0.3 1022270
07:00−9с2389100 0.4 1022324
10:00−7с3276100 0.1 1021853
13:00−6ссв4369100 0.3 1020957
16:00−5с4369100 0.2 1020924
19:00−8с5581100 0.4 1023664
22:00−10с348899 0.1 1025408
21 апреля, ср
ср2101:00−12сз119286 0.2 1026182
04:00−13з109374 0.0 1026105
07:00−13ююз119013 0.0 102583
10:00−7всв11630 0.0 1022420
13:00−3с22410 0.0 1019870
16:00−1с334481 0.0 10171228
19:00−4с4565100 0.1 1020585
22:00−7с2478100 0.2 1024328
22 апреля, чт
чт2201:00−8ссз2376100 0.3 1025430
04:00−9с2384100 0.1 1027348
07:00−9с2382100 0.3 1029402
10:00−6с3368100 0.2 10301008
13:00−4с4458100 0.4 10301523
16:00−3с5560100 0.4 10311439
19:00−5с566997 0.6 10341058
22:00−7ссз3584100 0.1 1038455
23 апреля, пт
пт2301:00−7ссз2483100 0.3 1037391
04:00−8ссз2486100 0.3 1037344
07:00−7ссз2491100 1.4 1037355
10:00−5с3579100 0.8 1036866
13:00−3с4466100 1.5 10341323
16:00−2с5463100 0.6 10331253
19:00−3с4570100 0.7 1034781
22:00−6ссз128799 0.0 1036216